Weather History for Ft Lauderdale, FL

Change the Weather History Date:

Tuesday, February 19, 2013

  Actual Average Record
Temperature  
Mean Temperature 73 °F 71 °F  
Max Temperature 77 °F 78 °F 89 °F (1926)
Min Temperature 68 °F 64 °F 35 °F (1958)
Degree Days  
Heating Degree Days 0 1  
Month to date heating degree days 19 19  
Since 1 July heating degree days 43 99  
Cooling Degree Days 8 7  
Month to date cooling degree days 109 124  
Year to date cooling degree days 364 294  
Growing Degree Days 22 (Base 50)    
Moisture  
Dew Point 61 °F    
Average Humidity 71    
Maximum Humidity 84    
Minimum Humidity 57    
Precipitation  
Precipitation 0.00 in 0.08 in 2.56 in (1981)
Month to date precipitation 1.91 2.12  
Year to date precipitation 2.89 5.75  
Snow  
Snow 0.00 in - - ()
Month to date snowfall 0.0  
Since 1 July snowfall 0.0  
Snow Depth 0.00 in    
Sea Level Pressure  
Sea Level Pressure 30.15 in    
Wind  
Wind Speed 11 mph (SE)    
Max Wind Speed 20 mph    
Max Gust Speed 25 mph    
Visibility 10 miles    
Events      
T = Trace of Precipitation, MM = Missing Value Source: NWS Daily Summary

Daily Weather History Graph

Daily Weather History Graph

Search for Another Location

Airport:

Trip Planner

Search our weather history database for the weather conditions in past years. The results will help you decide how hot, cold, wet, or windy it might be!

Date:

Astronomy

Feb. 19, 2013 Rise Set
Actual Time 6:52 AM EST 6:16 PM EST
Civil Twilight 6:29 AM EST 6:39 PM EST
Nautical Twilight 6:02 AM EST 7:06 PM EST
Astronomical Twilight 5:35 AM EST 7:33 PM EST
Moon 1:03 PM EST (2/19) 2:06 AM EST (2/19)
Length of Visible Light 12h 10m
Length of Day
11h 23m
Waxing Gibbous, 67% of the Moon is Illuminated
Feb 19
Waxing Gibbous
Feb 25
Full
Mar 4
Last Quarter
Mar 11
New
Mar 19
First Quarter

Hourly Weather History & Observations

Time (EST) Temp. Dew Point Humidity Pressure Visibility Wind Dir Wind Speed Gust Speed Precip Events Conditions
12:53 AM 68.0 °F 55.9 °F 65% 30.19 in 10.0 mi SE 15.0 mph 23.0 mph N/A   Scattered Clouds
1:53 AM 68.0 °F 54.0 °F 61% 30.19 in 10.0 mi SE 12.7 mph - N/A   Mostly Cloudy
2:53 AM 69.1 °F 54.0 °F 58% 30.16 in 10.0 mi SE 17.3 mph 24.2 mph N/A   Mostly Cloudy
3:53 AM 68.0 °F 55.0 °F 63% 30.15 in 10.0 mi SE 10.4 mph - N/A   Mostly Cloudy
4:53 AM 68.0 °F 55.0 °F 63% 30.15 in 10.0 mi SSE 8.1 mph - N/A   Scattered Clouds
5:53 AM 68.0 °F 57.0 °F 68% 30.16 in 10.0 mi SE 10.4 mph - N/A   Scattered Clouds
6:53 AM 68.0 °F 57.0 °F 68% 30.17 in 10.0 mi SE 8.1 mph - N/A   Scattered Clouds
7:53 AM 70.0 °F 59.0 °F 68% 30.18 in 10.0 mi SE 12.7 mph 19.6 mph N/A   Mostly Cloudy
8:53 AM 72.0 °F 60.1 °F 66% 30.19 in 10.0 mi SE 15.0 mph - N/A   Scattered Clouds
9:53 AM 73.9 °F 60.1 °F 62% 30.19 in 10.0 mi SE 17.3 mph 23.0 mph N/A   Partly Cloudy
10:53 AM 73.9 °F 61.0 °F 64% 30.19 in 10.0 mi SSE 17.3 mph 21.9 mph N/A   Mostly Cloudy
11:53 AM 75.0 °F 62.1 °F 64% 30.18 in 10.0 mi SE 13.8 mph - N/A   Overcast
1:53 PM 77.0 °F 63.0 °F 62% 30.14 in 10.0 mi SE 13.8 mph 20.7 mph N/A   Mostly Cloudy
2:53 PM 75.0 °F 64.0 °F 69% 30.12 in 10.0 mi SSE 15.0 mph 21.9 mph N/A   Mostly Cloudy
3:53 PM 75.0 °F 64.0 °F 69% 30.11 in 10.0 mi SSE 13.8 mph - N/A   Scattered Clouds
4:53 PM 73.9 °F 64.0 °F 71% 30.10 in 10.0 mi South 12.7 mph - N/A   Scattered Clouds
5:53 PM 73.0 °F 64.0 °F 73% 30.10 in 10.0 mi South 8.1 mph - N/A   Partly Cloudy
7:53 PM 72.0 °F 64.9 °F 78% 30.12 in 10.0 mi South 4.6 mph - N/A   Partly Cloudy
8:53 PM 71.1 °F 64.9 °F 81% 30.13 in 10.0 mi SSE 3.5 mph - N/A   Partly Cloudy
9:53 PM 70.0 °F 64.9 °F 84% 30.13 in 10.0 mi Calm Calm - N/A   Partly Cloudy
10:53 PM 70.0 °F 64.9 °F 84% 30.12 in 10.0 mi Calm Calm - N/A   Partly Cloudy
11:53 PM 69.1 °F 64.9 °F 87% 30.11 in 10.0 mi NNW 5.8 mph - N/A   Scattered Clouds